Regional Weather Roundup
Issued by NWS

Home | Current Version | Previous Version | Graphics & Text | Print | Product List | Glossary Off
Versions: 1 2 3 4 5 6 7 8 9 10 11 12 13 14 15 16 17 18 19 20 21 22 23 24 25 26 27 28 29 30 31 32 33 34 35 36 37 38 39 40 41 42 43 44 45 46 47 48 49 50

000
ASUS43 KMKX 230621
RWRWI

WISCONSIN REGIONAL WEATHER ROUNDUP
NATIONAL WEATHER SERVICE MILWAUKEE/SULLIVAN WI
100 AM CDT SAT AUG 23 2014

NOTE: "FAIR" INDICATES FEW OR NO CLOUDS BELOW 12,000 FEET WITH NO
SIGNIFICANT WEATHER AND/OR OBSTRUCTIONS TO VISIBILITY.

WIZ001-002-006>008-014>016-023>028-230700-
NORTHWEST WISCONSIN

CITY           SKY/WX    TMP DP  RH WIND       PRES   REMARKS
SUPERIOR ARPT  CLOUDY    60  60  99 CALM      30.07R
6HR MIN TEMP:  60; 6HR MAX TEMP:  62;

ASHLAND        CLOUDY    64  61  90 CALM      30.06S
6HR MIN TEMP:  63; 6HR MAX TEMP:  66;

HAYWARD        CLOUDY    65  64  97 N6        30.06R
6HR MIN TEMP:  65; 6HR MAX TEMP:  70;

SIREN          CLOUDY    66  64  94 N5        30.05S
6HR MIN TEMP:  66; 6HR MAX TEMP:  71;

RICE LAKE      MOCLDY    66  64  94 CALM      30.04S FOG
6HR MIN TEMP:  66; 6HR MAX TEMP:  73; 6HR PCP:  0.01;

LADYSMITH      MOCLDY    67  65  95 NE3       30.05S
6HR MIN TEMP:  66; 6HR MAX TEMP:  76;

EAU CLAIRE     MOCLDY    69  69 100 N3        29.99F
6HR MIN TEMP:  69; 6HR MAX TEMP:  80;

MENOMONIE      CLOUDY    70  68  95 CALM      30.00F
6HR MIN TEMP:  70; 6HR MAX TEMP:  78;

NEW RICHMOND   CLOUDY    68  68  99 NE8       30.02F
6HR MIN TEMP:  68; 6HR MAX TEMP:  73;

OSCEOLA        CLOUDY    69  69 100 N7        30.04S
6HR MIN TEMP:  69; 6HR MAX TEMP:  73;

$$

WIZ003>005-009-010-017-018-230700-
NORTH CENTRAL WISCONSIN

CITY           SKY/WX    TMP DP  RH WIND       PRES   REMARKS
WOODRUFF       FOG       69  67  93 N3        30.05S VSB 3/4
6HR MIN TEMP:  69; 6HR MAX TEMP:  77;

RHINELANDER    CLOUDY    68  68 100 CALM      30.05S FOG
6HR MIN TEMP:  68; 6HR MAX TEMP:  73;

EAGLE RIVER    RAIN      69  69 100 CALM      30.04S VSB 1/4
6HR MIN TEMP:  69; 6HR MAX TEMP:  71;

LAND O LAKES   CLOUDY    68  68 100 N3        30.06S FOG
6HR MIN TEMP:  68; 6HR MAX TEMP:  70;

PHILLIPS       CLOUDY    65  65  99 CALM      30.04S FOG
6HR MIN TEMP:  65; 6HR MAX TEMP:  72;

TOMAHAWK       CLOUDY    68  67  96 CALM      30.05S FOG
6HR MIN TEMP:  65; 6HR MAX TEMP:  73;

MEDFORD        CLOUDY    68  68  99 CALM      30.03S FOG
6HR MIN TEMP:  68; 6HR MAX TEMP:  75;

MERRILL        FOG       70  70 100 CALM      30.03S VSB 1/2
6HR MIN TEMP:  66; 6HR MAX TEMP:  73;

$$

WIZ029-030-035-036-043>047-230700-
CENTRAL WISCONSIN

CITY           SKY/WX    TMP DP  RH WIND       PRES   REMARKS
WAUSAU         CLOUDY    72  71  97 CALM      30.01R FOG
6HR MIN TEMP:  72; 6HR MAX TEMP:  76;

MOSINEE        MOCLDY    70  70 100 CALM      30.03R FOG
MARSHFIELD     CLOUDY    74  72  93 NE5       30.01R FOG
6HR MIN TEMP:  73; 6HR MAX TEMP:  83;

STEVENS POINT  MOCLDY    70  69  96 CALM      30.01S FOG
6HR MIN TEMP:  70; 6HR MAX TEMP:  81;

WAUPACA        MOCLDY    73  71  94 E3        30.00F FOG
6HR MIN TEMP:  73; 6HR MAX TEMP:  78;

WAUTOMA        FAIR      73  72  94 E6        29.99S
6HR MIN TEMP:  74; 6HR MAX TEMP:  83;

WISC RAPIDS    CLOUDY    74  71  91 E6        30.00S
6HR MIN TEMP:  74; 6HR MAX TEMP:  84;

CAMP DOUGLAS   FOG       68  68 100 CALM      29.97F VSB 1/4
6HR MIN TEMP:  68; 6HR MAX TEMP:  83; 6HR PCP: TRACE;

$$

WIZ011>013-019>022-031-037>040-048>050-230700-
NORTHEAST WISCONSIN

CITY           SKY/WX    TMP DP  RH WIND       PRES   REMARKS
ANTIGO         CLOUDY    69  69 100 SE8       30.05R FOG
6HR MIN TEMP:  69; 6HR MAX TEMP:  72;

STURGEON BAY   CLOUDY    68  64  88 SE6       30.02F
6HR MIN TEMP:  68; 6HR MAX TEMP:  70;

GREEN BAY      CLOUDY    70  68  93 E5        30.01S FOG
6HR MIN TEMP:  70; 6HR MAX TEMP:  77;

MANITOWOC      FOG       66  66 100 CALM      30.01S VSB 1/4
6HR MIN TEMP:  66; 6HR MAX TEMP:  69;

APPLETON       CLOUDY    70  68  94 E5        30.02R FOG
CLINTONVILLE   CLOUDY    70  68  94 E3        30.01S FOG
OSHKOSH        CLOUDY    72  70  93 CALM      29.99S FOG
6HR MIN TEMP:  72; 6HR MAX TEMP:  78;

$$

WIZ032>034-041-042-053>061-230700-
SOUTHWEST WISCONSIN

CITY           SKY/WX    TMP DP  RH WIND       PRES   REMARKS
LA CROSSE      FAIR      74  71  91 NW6       29.97S
6HR MIN TEMP:  74; 6HR MAX TEMP:  85;

SPARTA           N/A     68  67  97 CALM      29.98S
6HR MIN TEMP:  67; 6HR MAX TEMP:  83;

VIROQUA        FAIR      73  73 100 N3        30.00R
6HR MIN TEMP:  73; 6HR MAX TEMP:  82;

BOSCOBEL       MOCLDY    76  74  93 CALM      29.95S FOG
6HR MIN TEMP:  76; 6HR MAX TEMP:  87;

PRAIRIE DU CHI MOCLDY    78  75  90 CALM      29.95R HX  81
6HR MIN TEMP:  77; 6HR MAX TEMP:  87;

PLATTEVILLE    FAIR      76  74  96 CALM      29.98R
6HR MIN TEMP:  76; 6HR MAX TEMP:  85;

$$

WIZ056-057-062-063-064-067-068-230700-
SOUTH CENTRAL WISCONSIN

CITY           SKY/WX    TMP DP  RH WIND       PRES   REMARKS
BARABOO/DELLS  FAIR      73  71  92 CALM      29.97S FOG
6HR MIN TEMP:  73; 6HR MAX TEMP:  86;

LONE ROCK      FAIR      78  73  84 CALM      29.95F HAZE    HX  81
6HR MIN TEMP:  77; 6HR MAX TEMP:  92;

WATERTOWN      FAIR      71  71 100 E5        29.98F FOG
6HR MIN TEMP:  71; 6HR MAX TEMP:  82;

MADISON        MOCLDY    75  73  93 SE5       29.97S
6HR MIN TEMP:  76; 6HR MAX TEMP:  86;

MIDDLETON      CLOUDY    78  77  98 SE5       29.97F HX  81
6HR MIN TEMP:  76; 6HR MAX TEMP:  87;

MONROE         FAIR      73  73 100 S5        29.98S FOG
JANESVILLE     FAIR      75  73  94 CALM      29.96F FOG
$$

WIZ051-052-058>065-066-070>072-230700-
SOUTHEAST WISCONSIN

CITY           SKY/WX    TMP DP  RH WIND       PRES   REMARKS
MILWAUKEE      FOG       70  68  93 E3        30.00S VSB 1/8
6HR MIN TEMP:  69; 6HR MAX TEMP:  71;

WAUKESHA       CLOUDY    68  68 100 E5        30.01S FOG
MILWAUKEE/TIMM FOG       68  66  94 CALM      30.01S VSB 3/4
RACINE         FOG       70  69  97 E3        30.01F VSB 1/4
6HR MIN TEMP:  70; 6HR MAX TEMP:  74;

BURLINGTON     CLOUDY    70  70  99 E5        29.99F FOG
6HR MIN TEMP:  70; 6HR MAX TEMP:  76;

KENOSHA        FOG       70  70 100 NE6       29.99F VSB 1/4
6HR MIN TEMP:  71; 6HR MAX TEMP:  76;

FOND DU LAC    CLOUDY    71  68  90 SE3       29.99S FOG
6HR MIN TEMP:  71; 6HR MAX TEMP:  80;

SHEBOYGAN      FOG       68  67  96 CALM      30.01S VSB 1/4
6HR MIN TEMP:  68; 6HR MAX TEMP:  71;

WEST BEND      FOG       68  66  94 CALM      30.00F VSB 1/4
JUNEAU         FAIR      70  44  39 SE5       30.00S HAZE
6HR MIN TEMP:  70; 6HR MAX TEMP:  81;

$$

LSZ147-162-230700-
LAKE SUPERIOR

STATION/POSITION TIME  TEMP    WIND        PRES    WAVE
                       AIR SEA DIR/SP/G            HT/PER
                 (UTC) (F)     (DEG/KT/KT) (MB)    (FT/S)
W MID LAKE BUOY  0550   58 58   40/ 12/ 14 1017.3F   1/ 4
DEVILS ISLAND    0600   60      60/  8/  9 1017.8S
PORT WING        0540   61      CALM  /  2 1017.9S
SAXON HARBOR     0500   63        CALM     1017.6
$$

LMZ867-665-643>646-230700-
LAKE MICHIGAN

STATION/POSITION TIME  TEMP    WIND        PRES    WAVE
                       AIR SEA DIR/SP/G            HT/PER
                 (UTC) (F)     (DEG/KT/KT) (MB)    (FT/S)
N MID LAKE BUOY  0550   68 65  120/ 10/ 10 1015.8F   1
NORTHPORT PIER   0500   67     120/  1/  3 1016.3S
SISTER BAY       0541   68     140/  2/  6   N/A
ALGOMA LAKESHORE 0353             CALM       N/A
KEWAUNEE LAKESHO 0500   67      40/  2/  5 1015.3F
SHEBOYGAN LAKESH 0600   67 65   40/  3/  3 1016.2R
ATWATER BUOY     0600   69      40/  4/  6 1017.0R
MILWAUKEE LAKESH 0500   69      30/  3/  4   N/A
S MID LAKE BUOY  0550   70 69   50/  8/  8 1015.4F   0
KENOSHA   LAKESH 0600   71      30/  8/  8 1015.2F
$$

TC  - TEMPERATURE IN CELSIUS
VSB - VISIBILITY IN STATUTE MILES
WCI - WIND CHILL INDEX
HX  - HEAT INDEX



USA.gov is the U.S. government's official web portal to all federal, state and local government web resources and services.